Miscellaneous Local Product
Issued by NWS Hastings, NE

Home | Current Version | Previous Version | Text Only | Print | Product List | Glossary Off
Versions: 1 2 3 4 5 6 7 8 9 10 11 12 13 14 15 16 17 18 19 20 21 22 23 24 25 26 27 28 29 30 31 32 33 34 35 36 37 38 39 40 41 42 43 44 45 46 47 48 49 50

493
AXUS43 KGID 101902
MISGRI

GID CWA HOURLY WEATHER ROUNDUP
NATIONAL WEATHER SERVICE HASTINGS NE
100 PM CST WED FEB 10 2016

NOTE: "FAIR" INDICATES FEW OR NO CLOUDS BELOW 12,000 FEET WITH NO
SIGNIFICANT WEATHER AND/OR OBSTRUCTIONS TO VISIBILITY.

...SOUTH CENTRAL NEBRASKA...

CITY           SKY/WX    TMP DP  RH WIND       PRES   REMARKS
GRAND ISLAND   SUNNY     43  30  60 W10       29.88F
HASTINGS       SUNNY     44  30  57 W10       29.88F
KEARNEY        SUNNY     46  30  53 W9        29.90F
ORD            SUNNY     48  30  49 W9        29.85F
YORK           SUNNY     41  32  70 W7        29.87F
AURORA         SUNNY     42  31  63 W10       29.88F
LEXINGTON      SUNNY     46  31  54 NW14      29.91F
HOLDREGE       SUNNY     46  31  55 NW7       29.92F
HEBRON         SUNNY     43  31  62 W8        29.90F

...NEBRASKA PANHANDLE...

CITY           SKY/WX    TMP DP  RH WIND       PRES   REMARKS
CHADRON        SUNNY     61  27  27 W24G31    29.97F
ALLIANCE       SUNNY     40  31  70 W12       29.99F WCI  33
SCOTTSBLUFF    SUNNY     59  25  27 W23G29    30.02F
SIDNEY         CLOUDY    50  29  44 NW14      30.04F

...WESTERN AND NORTH CENTRAL NEBRASKA...

CITY           SKY/WX    TMP DP  RH WIND       PRES   REMARKS
VALENTINE      SUNNY     54  29  38 NW16G24   29.87F
AINSWORTH      SUNNY     58  25  28 NW23G31   29.85F
ONEILL         SUNNY     50  32  50 W7        29.84F
BROKEN BOW     SUNNY     55  30  38 W9        29.88F
IMPERIAL       SUNNY     48  29  47 W14       30.00F
NORTH PLATTE   SUNNY     49  30  48 NW15      29.93F
MCCOOK         SUNNY     48  29  47 W17       29.96F

...EASTERN NEBRASKA...

CITY           SKY/WX    TMP DP  RH WIND       PRES   REMARKS
NORFOLK        SUNNY     37  25  61 CALM      29.86S
SO SIOUX CITY  SUNNY     30  21  69 SE14      29.93F WCI  19
TEKAMAH        SUNNY     31  22  69 E12       29.93F WCI  22
COLUMBUS       SUNNY     37  23  56 NW6       29.88S WCI  33
ALBION         SUNNY     41  30  65 NW6       29.85F
OMAHA EPPLEY   MOSUNNY   34  22  61 S8        29.92F WCI  27
OFFUTT AFB     SUNNY     36  21  54 SE5       29.91F WCI  32
MILLARD        SUNNY     34  22  60 SE3       29.92F
LINCOLN        SUNNY     37  27  67 CALM      29.90F
NEBRASKA CITY  SUNNY     38  21  49 SW5       29.92F WCI  35
BEATRICE       SUNNY     47  31  53 W10       29.88F
FALLS CITY     SUNNY     46  23  40 VRB7      29.91F

...NORTHERN KANSAS...

CITY           SKY/WX    TMP DP  RH WIND       PRES   REMARKS
GOODLAND       SUNNY     55  27  34 NW15      30.05F
HILL CITY      SUNNY     53  29  39 W17G26    29.96F
NORTON         CLEAR     48  27  43 W15       29.94
PHILLIPSBURG   SUNNY     50  28  43 W21G26    29.94F
SMITH CENTER   SUNNY     52  30  43 W12       29.93F
BELOIT         SUNNY     55  30  38 W10G16    29.91F
HAYS           SUNNY     59  30  33 W21       29.97F
RUSSELL        SUNNY     64  28  25 W20       29.94F
CONCORDIA      SUNNY     54  30  40 W12       29.90F
SALINA         SUNNY     65  28  24 W10       29.92F
TOPEKA         SUNNY     48  21  34 SW9       29.94F



USA.gov is the U.S. government's official web portal to all federal, state and local government web resources and services.